Regional Weather Roundup
Issued by NWS Raleigh/Durham, NC

Current Version | Previous Version | Graphics & Text | Print | Product List | Glossary On
Versions: 1 2 3 4 5 6 7 8 9 10 11 12 13 14 15 16 17 18 19 20 21 22 23 24 25 26 27 28 29 30 31 32 33 34 35 36 37 38 39 40 41 42 43 44 45 46 47 48 49 50
000
ASUS42 KRAH 042210
RWRRAH
NORTH CAROLINA WEATHER ROUNDUP
NATIONAL WEATHER SERVICE RALEIGH NC
600 PM EDT SAT JUL 04 2015

NOTE: "FAIR" INDICATES FEW OR NO CLOUDS BELOW 12,000 FEET WITH NO
SIGNIFICANT WEATHER AND/OR OBSTRUCTIONS TO VISIBILITY.

NCZ001-053-055-056-065-067-042300-
WESTERN NORTH CAROLINA

CITY           SKY/WX    TMP DP  RH WIND       PRES   REMARKS
ASHEVILLE      PTSUNNY   76  64  66 N6        30.08R
JEFFERSON      PTSUNNY   74  59  60 W5        30.10R
MORGANTON      PTSUNNY   81  67  63 SW8       30.05S
HICKORY        CLOUDY    83  66  56 SW8       30.00R
RUTHERFORDTON  NOT AVBL
MOUNT AIRY     MOSUNNY   77  73  85 S3        30.01S
BOONE          MOSUNNY   73  60  63 NW6       30.11S
$$

NCZ021-022-025-041-071-084-088-042300-
CENTRAL NORTH CAROLINA

CITY           SKY/WX    TMP DP  RH WIND       PRES   REMARKS
CHARLOTTE      PTSUNNY   88  61  40 SW15G22   29.99S
GREENSBORO     PTSUNNY   86  66  51 W13       29.97S
WINSTON-SALEM  PTSUNNY   80  68  66 W6        29.99S
RALEIGH-DURHAM PTSUNNY   84  69  60 SW15      29.97R
FORT BRAGG     MOSUNNY   88  66  48 SW9G20    29.97R
FAYETTEVILLE   SUNNY     87  66  49 SW17      29.98R
BURLINGTON     MOSUNNY   86  68  54 SW8       29.96R
LAURINBURG     SUNNY     86  65  49 SW13      30.00R HAZE
$$

NCZ011-015-027-028-043-044-047-080-103-042300-
NORTHEASTERN NORTH CAROLINA

CITY           SKY/WX    TMP DP  RH WIND       PRES   REMARKS
ROCKY MT-WILSO SUNNY     85  71  63 W9        29.96R
GREENVILLE     SUNNY     81  77  89 W3        29.98S
WASHINGTON     SUNNY     80  74  81 NW3       29.96S
ELIZABETH CITY PTSUNNY   77  73  87 SW9       29.94S
MANTEO         LGT RAIN  73  69  89 W8G20     29.96F
CAPE HATTERAS  SUNNY     81  73  76 SW15G25   29.99S
$$

NCZ078-087-090-091-093-098-101-042300-
SOUTHEASTERN NORTH CAROLINA

CITY           SKY/WX    TMP DP  RH WIND       PRES   REMARKS
LUMBERTON      SUNNY     88  67  49 SW16G26   30.00R
GOLDSBORO      SUNNY     87  67  50 SW10G18   29.95R
KINSTON        SUNNY     90  63  40 SW15G21   29.98R
KENANSVILLE    SUNNY     88  64  44 SW10G20   29.99S
NEW BERN       SUNNY     89  67  47 SW12G23   29.99S
CHERRY POINT   SUNNY     87  72  60 S13G20    30.00R
BEAUFORT       SUNNY     83  74  74 SW20      30.01R
JACKSONVILLE   SUNNY     89  66  46 W13G22    29.99S
WILMINGTON     SUNNY     88  72  58 SW12G21   30.01S
$$



USA.gov is the U.S. government's official web portal to all federal, state and local government web resources and services.